星链-11300 (STARLINK-11300)

导读

STARLINK-11300是美国太空探索技术公司(SpaceX)星链(Starlink)卫星互联网星座的成员,由美国于2024年9月25日发射升空。星链计划旨在通过近地轨道卫星群搭建全球卫星互联网,为地面提供高速网络服务,该卫星加入星座后进一步扩充了星链网络的覆盖范围与服务容量。

基本信息
目录编号:
61243
目录名称:
STARLINK-11300
国际标识:
2024-175A
轨道中心:
EARTH
卫星名称:
星链-11300
卫星全名:
星链-11300 (STARLINK-11300)
卫星状态:
在轨 (已飞行627 天)
发射日期:
2024-09-25 UTC
国别 :
美国 (US)
星等 :
--
轨道信息
数据来源 国际轨道数据
星历时间: 2026-06-14T00:29:24+0800
19小时前
查看轨道信息
半长轴: 6737.877km
偏心率: 0.000089
轨道倾角: 53.159°
近地点辐角 51.887°
升交点赤经 303.055°
平近点角 308.223°
近地点: 359.14km
远地点: 360.34km
周期: 91.737分钟
每日圈数: 15.697054
详细信息
固有亮度:
5
最大亮度:
2.5
卫星平台:
Starlink V1.0
覆盖范围:
全球
运营商:
太空探索技术公司
运营商所在国:
美国
制造商(研发单位):
太空探索技术公司
制造商所在国:
美国
使用方式:
暂无
卫星简介
Starlink 计划是 SpaceX 推出的全球卫星互联网项目,通过发射低轨道卫星,为全球尤其是偏远地区提供高速、低延迟的互联网服务。自 2019 年起,Starlink 已部署数千颗卫星,旨在缩小全球数字鸿沟,推动互联网普及。该项目还为军事、航空等行业提供通信支持,带来广泛经济效益。
2D轨道图
3D轨道图
轨道高度分析图
轨道倾角分析图
轨道综合分析图
查看轨道综合分析图